BJN096 ESMX-ESSV

Flight info

Callsign BJN096
Flight time 0h 29m
Altitude 17000
Route MOVIS DCT KINTI
Aircraft B737/M-SDE2E3FGHIRWXY/LB1

Departure

Time 2026-05-06 17:58
Airport Växjö Kronoberg Airport (ESMX)

Arrival

Time 2026-05-06 18:27
Airport Visby Airport (ESSV)
Time Latitude Longitude Altitude Speed Heading
2026-05-06 17:40 56.92538 14.73080 605 ft 0 kts 141°
2026-05-06 17:51 56.92539 14.73077 605 ft 1 kts 141°
2026-05-06 17:52 56.92549 14.73063 616 ft 2 kts 135°
2026-05-06 17:52 56.92560 14.73041 605 ft 3 kts 133°
2026-05-06 17:52 56.92570 14.73025 618 ft 2 kts 165°
2026-05-06 17:52 56.92582 14.73023 611 ft 2 kts 185°
2026-05-06 17:53 56.92588 14.73024 620 ft 0 kts 189°
2026-05-06 17:54 56.92582 14.73022 611 ft 2 kts 191°
2026-05-06 17:54 56.92559 14.72967 612 ft 10 kts 269°
2026-05-06 17:54 56.92581 14.72783 607 ft 20 kts 283°
2026-05-06 17:55 56.92519 14.72627 606 ft 19 kts 194°
2026-05-06 17:55 56.92367 14.72561 606 ft 25 kts 193°
2026-05-06 17:55 56.92185 14.72484 607 ft 27 kts 193°
2026-05-06 17:55 56.92040 14.72376 603 ft 18 kts 209°
2026-05-06 17:56 56.92007 14.72410 602 ft 5 kts 66°
2026-05-06 17:56 56.92036 14.72422 603 ft 0 kts 12°
2026-05-06 17:57 56.92196 14.72489 607 ft 63 kts 13°
2026-05-06 17:57 56.92911 14.72792 607 ft 144 kts 13°
2026-05-06 17:57 56.94039 14.73250 1037 ft 174 kts 13°
2026-05-06 17:58 56.95100 14.73965 2215 ft 161 kts 43°
2026-05-06 17:58 56.95679 14.75714 2982 ft 172 kts 76°
2026-05-06 17:58 56.96076 14.78047 3366 ft 210 kts 74°
2026-05-06 17:58 56.96551 14.80821 3688 ft 247 kts 74°
2026-05-06 17:59 56.97083 14.83930 4543 ft 261 kts 73°
2026-05-06 17:59 56.97632 14.87132 5678 ft 264 kts 72°
2026-05-06 17:59 56.98182 14.90349 6840 ft 266 kts 71°
2026-05-06 17:59 56.98744 14.93633 7792 ft 274 kts 71°
2026-05-06 18:00 56.99320 14.97005 8771 ft 280 kts 71°
2026-05-06 18:00 56.99907 15.00450 9782 ft 286 kts 71°
2026-05-06 18:00 57.00510 15.03993 10488 ft 300 kts 71°
2026-05-06 18:00 57.01162 15.07820 10726 ft 330 kts 71°
2026-05-06 18:01 57.01856 15.11913 11281 ft 345 kts 71°
2026-05-06 18:01 57.02573 15.16163 12106 ft 353 kts 72°
2026-05-06 18:01 57.03319 15.20597 13005 ft 359 kts 72°
2026-05-06 18:01 57.04057 15.24996 13862 ft 367 kts 72°
2026-05-06 18:02 57.04807 15.29470 14639 ft 374 kts 72°
2026-05-06 18:02 57.05576 15.34076 15400 ft 383 kts 72°
2026-05-06 18:02 57.06365 15.38812 16119 ft 393 kts 73°
2026-05-06 18:02 57.07173 15.43675 16764 ft 398 kts 73°
2026-05-06 18:03 57.07982 15.48549 16978 ft 405 kts 73°
2026-05-06 18:03 57.08823 15.53641 16996 ft 424 kts 73°
2026-05-06 18:03 57.09683 15.58859 16989 ft 430 kts 73°
2026-05-06 18:03 57.10550 15.64135 16976 ft 429 kts 73°
2026-05-06 18:04 57.11411 15.69385 16978 ft 429 kts 73°
2026-05-06 18:04 57.12269 15.74638 16985 ft 429 kts 73°
2026-05-06 18:04 57.13129 15.79914 16982 ft 429 kts 73°
2026-05-06 18:04 57.13983 15.85173 16979 ft 429 kts 73°
2026-05-06 18:05 57.14837 15.90447 16979 ft 429 kts 73°
2026-05-06 18:05 57.15688 15.95722 16987 ft 429 kts 73°
2026-05-06 18:05 57.16524 16.00916 16982 ft 429 kts 73°
2026-05-06 18:05 57.17394 16.06155 16983 ft 429 kts 71°
2026-05-06 18:06 57.18453 16.11298 16985 ft 428 kts 68°
2026-05-06 18:06 57.19595 16.16364 16983 ft 428 kts 66°
2026-05-06 18:06 57.20758 16.21395 16979 ft 428 kts 66°
2026-05-06 18:06 57.21916 16.26485 16978 ft 428 kts 67°
2026-05-06 18:07 57.23048 16.31567 16984 ft 427 kts 68°
2026-05-06 18:07 57.24169 16.36650 16979 ft 427 kts 68°
2026-05-06 18:07 57.25283 16.41712 16980 ft 427 kts 68°
2026-05-06 18:07 57.26406 16.46817 16984 ft 427 kts 68°
2026-05-06 18:08 57.27526 16.51913 16982 ft 427 kts 68°
2026-05-06 18:08 57.28642 16.56995 16983 ft 427 kts 68°
2026-05-06 18:08 57.29759 16.62089 16983 ft 427 kts 68°
2026-05-06 18:08 57.30866 16.67150 16973 ft 420 kts 68°
2026-05-06 18:09 57.31943 16.72085 16971 ft 408 kts 68°
2026-05-06 18:09 57.33000 16.76936 16976 ft 405 kts 68°
2026-05-06 18:09 57.34058 16.81803 16993 ft 407 kts 68°
2026-05-06 18:09 57.35103 16.86623 16711 ft 410 kts 68°
2026-05-06 18:10 57.36177 16.91586 16118 ft 409 kts 68°
2026-05-06 18:10 57.37224 16.96440 15462 ft 402 kts 68°
2026-05-06 18:10 57.38238 17.01150 14795 ft 396 kts 68°
2026-05-06 18:10 57.39267 17.05941 14117 ft 390 kts 68°
2026-05-06 18:11 57.40249 17.10526 13407 ft 385 kts 68°
2026-05-06 18:11 57.41231 17.15117 12679 ft 380 kts 68°
2026-05-06 18:11 57.42191 17.19618 12045 ft 372 kts 68°
2026-05-06 18:11 57.43130 17.24029 11791 ft 359 kts 68°
2026-05-06 18:12 57.44042 17.28326 11673 ft 365 kts 68°
2026-05-06 18:12 57.45009 17.32881 11573 ft 387 kts 68°
2026-05-06 18:12 57.45989 17.37512 11439 ft 388 kts 68°
2026-05-06 18:12 57.46983 17.42217 11309 ft 388 kts 68°
2026-05-06 18:13 57.47960 17.46860 11178 ft 386 kts 68°
2026-05-06 18:13 57.48936 17.51517 11045 ft 384 kts 68°
2026-05-06 18:13 57.49888 17.56082 10923 ft 382 kts 68°
2026-05-06 18:13 57.50846 17.60688 10801 ft 381 kts 68°
2026-05-06 18:14 57.51798 17.65277 10677 ft 380 kts 68°
2026-05-06 18:14 57.52748 17.69862 10550 ft 379 kts 68°
2026-05-06 18:14 57.53694 17.74436 10435 ft 378 kts 68°
2026-05-06 18:14 57.54634 17.78993 10302 ft 377 kts 69°
2026-05-06 18:15 57.55562 17.83501 10187 ft 376 kts 69°
2026-05-06 18:15 57.56500 17.88066 10058 ft 378 kts 69°
2026-05-06 18:15 57.57435 17.92632 10005 ft 374 kts 69°
2026-05-06 18:15 57.58336 17.97040 9984 ft 355 kts 69°
2026-05-06 18:16 57.59184 18.01198 9973 ft 331 kts 69°
2026-05-06 18:16 57.59973 18.05076 9976 ft 309 kts 69°
2026-05-06 18:16 57.60711 18.08709 9959 ft 291 kts 69°
2026-05-06 18:16 57.61408 18.12144 9761 ft 281 kts 69°
2026-05-06 18:17 57.61960 18.15631 9307 ft 280 kts 84°
2026-05-06 18:17 57.61737 18.19213 8914 ft 278 kts 104°
2026-05-06 18:17 57.61190 18.22611 8535 ft 275 kts 107°
2026-05-06 18:17 57.60604 18.26006 8136 ft 274 kts 107°
2026-05-06 18:18 57.60018 18.29341 7785 ft 271 kts 107°
2026-05-06 18:18 57.59426 18.32672 7416 ft 268 kts 107°
2026-05-06 18:18 57.58839 18.35961 7035 ft 266 kts 107°
2026-05-06 18:18 57.58256 18.39214 6682 ft 264 kts 107°
2026-05-06 18:19 57.57615 18.42397 6291 ft 263 kts 118°
2026-05-06 18:19 57.56362 18.44862 5917 ft 263 kts 147°
2026-05-06 18:19 57.54681 18.45957 5583 ft 255 kts 172°
2026-05-06 18:19 57.52910 18.45632 5038 ft 258 kts 195°
2026-05-06 18:20 57.51310 18.44134 4517 ft 258 kts 211°
2026-05-06 18:20 57.49837 18.42224 3985 ft 257 kts 214°
2026-05-06 18:20 57.48420 18.40329 3818 ft 253 kts 213°
2026-05-06 18:20 57.47024 18.38305 3623 ft 256 kts 226°
2026-05-06 18:21 57.46183 18.35399 3457 ft 259 kts 257°
2026-05-06 18:21 57.46214 18.32152 3288 ft 249 kts 285°
2026-05-06 18:21 57.46748 18.29148 3132 ft 240 kts 292°
2026-05-06 18:21 57.47387 18.26334 2965 ft 232 kts 303°
2026-05-06 18:22 57.48491 18.24320 2844 ft 217 kts 335°
2026-05-06 18:22 57.49886 18.23558 2733 ft 201 kts
2026-05-06 18:22 57.51206 18.23868 2605 ft 184 kts 21°
2026-05-06 18:22 57.52366 18.24643 2495 ft 170 kts 25°
2026-05-06 18:23 57.53434 18.25409 2365 ft 159 kts 25°
2026-05-06 18:23 57.54449 18.26139 2273 ft 156 kts 25°
2026-05-06 18:23 57.55456 18.26863 2158 ft 155 kts 25°
2026-05-06 18:23 57.56427 18.27565 1997 ft 148 kts 25°
2026-05-06 18:24 57.57365 18.28236 1851 ft 135 kts 25°
2026-05-06 18:24 57.58224 18.28851 1629 ft 128 kts 25°
2026-05-06 18:24 57.59047 18.29440 1477 ft 128 kts 25°
2026-05-06 18:24 57.59859 18.30021 1340 ft 124 kts 25°
2026-05-06 18:25 57.60659 18.30594 1152 ft 124 kts 25°
2026-05-06 18:25 57.61476 18.31180 980 ft 127 kts 25°
2026-05-06 18:25 57.62299 18.31768 818 ft 126 kts 24°
2026-05-06 18:25 57.63119 18.32354 636 ft 125 kts 25°
2026-05-06 18:26 57.63933 18.32936 477 ft 125 kts 25°
2026-05-06 18:26 57.64749 18.33522 325 ft 126 kts 24°
2026-05-06 18:26 57.65568 18.34107 169 ft 126 kts 24°
2026-05-06 18:26 57.66273 18.34617 149 ft 89 kts 21°
2026-05-06 18:27 57.66720 18.34937 144 ft 55 kts 20°
2026-05-06 18:27 57.66950 18.35099 150 ft 25 kts 20°
2026-05-06 18:27 57.67088 18.35196 151 ft 16 kts 19°
2026-05-06 18:27 57.67191 18.35165 149 ft 16 kts 315°
2026-05-06 18:28 57.67195 18.34981 150 ft 15 kts 233°
2026-05-06 18:28 57.67106 18.34892 149 ft 14 kts 201°
2026-05-06 18:28 57.67015 18.34826 149 ft 14 kts 201°
2026-05-06 18:28 57.66912 18.34751 145 ft 18 kts 201°
2026-05-06 18:29 57.66781 18.34657 144 ft 22 kts 200°
2026-05-06 18:29 57.66636 18.34554 145 ft 22 kts 201°
2026-05-06 18:29 57.66494 18.34452 145 ft 22 kts 200°
2026-05-06 18:29 57.66351 18.34351 145 ft 23 kts 201°
2026-05-06 18:30 57.66200 18.34240 145 ft 23 kts 200°
2026-05-06 18:30 57.66056 18.34138 144 ft 16 kts 200°
2026-05-06 18:30 57.65989 18.34024 144 ft 13 kts 222°
2026-05-06 18:30 57.65981 18.33938 145 ft 8 kts 329°
2026-05-06 18:31 57.66010 18.33908 145 ft 0 kts 332°